Volver al catálogo

STARLINK-34120

ActivoComunicacionesVLEO
NORAD 63898·PAYLOAD·🇺🇸 United States

Lanzado May 10, 2025 desde Cape Canaveral Space Force Station

Loading…

Próximos Pases (próximas 24 horas)

TLE

ActualizadoSource: CelesTrak SupGP

Época: Sep 15, 2026, 03:12 UTC

1 63898C 25095J   26258.13381944  .00045319  00000+0  16424-2 0  2589
2 63898  43.0026 185.8768 0001416 277.7788 173.6362 15.27537451    11

Sigue STARLINK-34120 en tiempo real con AllMySat

Download on the App Store